Regional Weather Roundup
Issued by NWS Grand Forks, ND

Home | Current Version | Previous Version | Graphics & Text | Print | Product List | Glossary On
Versions: 1 2 3 4 5 6 7 8 9 10 11 12 13 14 15 16 17 18 19 20 21 22 23 24 25 26 27 28 29 30 31 32 33 34 35 36 37 38 39 40 41 42 43 44 45 46 47 48 49 50
000
ASUS43 KFGF 222231
RWRFGF
PRAIRIE TO PINES  WEATHER ROUNDUP
NATIONAL WEATHER SERVICE EASTERN NORTH DAKOTA/GRAND FORKS ND
400 PM CST MON JAN 22 2018

 **SATELLITE DATA USED TO AUGMENT SKY COVER AT AUTOMATED STATIONS**
 *****  WEATHER ACROSS EASTERN NORTH DAKOTA  *****

CITY           SKY/WX    TMP DP  RH WIND       PRES   REMARKS
GRAND FORKS    CLOUDY    26  21  81 NE16G22   30.05R WCI  14
GRAND FRKS AFB CLOUDY    25  20  81 NE13      30.04R WCI  14
GRAND FRKS NWS   N/A     25 N/A N/A NE6         N/A  WCI  18
DEVILS LAKE    CLOUDY    21  20  96 N8        30.03S WCI  11
FARGO          CLOUDY    27  22  81 N15G24    29.99R WCI  15
WAHPETON ARPT  CLOUDY    28  23  80 N17G23    29.96R WCI  16
$$

 ***** WEATHER ACROSS CENTRAL AND WESTERN NORTH DAKOTA  *****

CITY           SKY/WX    TMP DP  RH WIND       PRES   REMARKS
BISMARCK       CLOUDY    23  21  92 NE3       30.02R FOG
MINOT          CLOUDY    21  19  92 S10       30.00S FOG     WCI  10
JAMESTOWN      CLOUDY    22  20  92 N14       30.01R WCI   9
MINOT AFB      CLOUDY    20  18  92 S8        29.99R FOG     WCI  10
GARRISON         N/A     18  16  92 S3        29.99S
WILLISTON      FAIR      28  18  66 SW7       29.97R WCI  21
DICKINSON      FAIR      33  21  61 W7        29.94R
HETTINGER      FAIR      36  22  56 W12       29.97R
$$

 *****  OTHER AIRPORT OBSERVATIONS IN OUR AREA  *****

CITY           SKY/WX    TMP DP  RH WIND       PRES   REMARKS
WALHALLA       FAIR      23  25 100 NE7       30.07S WCI  15
GRAFTON AIRPOR CLOUDY    25  21  86 N12       30.08R WCI  14
VALLEY CITY AR CLOUDY    21  21 100 NE14      30.03R WCI   8
CANDO          CLOUDY    23  23 100 CALM      30.05S
CAVALIER APRT    N/A     25  21  86 N9        30.07R WCI  15
GWINNER          N/A     25  23  93 N18       29.99R WCI  11
SHEYENNE NWR     N/A     25  24  98 N12       29.95S WCI  14
ROLLA          CLOUDY    21  21 100 SE5       30.01S WCI  15
 ***** THE ABOVE OBSERVATIONS ARE NON NWS ARE NOT QUALITY
       CONTROLLED AND MAY MIS-REPORT RAIN FOR SNOW...
$$

  *****  WEATHER ACROSS NORTHERN MINNESOTA  *****

CITY           SKY/WX    TMP DP  RH WIND       PRES   REMARKS
FLAG ISLAND    CLOUDY    21  16  79 NE12      30.06R WCI   9
WARROAD        CLOUDY    23  18  80 NE12G17   30.06R WCI  12
ROSEAU         CLOUDY    25  18  74 E12       30.05R WCI  14
HALLOCK        CLOUDY    27  19  74 NE6       30.06S WCI  20
THF RVR FALLS  CLOUDY    24  20  84 NE12      30.03R WCI  13
BAUDETTE       CLOUDY    22  17  81 N9        30.02R WCI  12
WASKISH        CLOUDY    25  21  86 NE9       30.01R WCI  15
CROOKSTON      MOCLDY    25  21  86 NE12      30.05R WCI  14
STEPHEN NDAWN    N/A     25  19  80 NE10        N/A  WCI  15
GREENBUSH NDAW   N/A     23  18  80 E8          N/A  WCI  14
$$
  *****  WEATHER ACROSS CENTRAL AND WEST MINNESOTA  *****

CITY           SKY/WX    TMP DP  RH WIND       PRES   REMARKS
FOSSTON        CLOUDY    21  19  93 NE8       30.00R WCI  12
BEMIDJI        CLOUDY    24  19  83 NE12G17   29.96R WCI  13
PARK RAPIDS    CLOUDY    26  20  77 NE10G23   29.90R WCI  16
ELBOW LAKE     CLOUDY    28  22  81 NE16      29.91R WCI  15
WADENA         CLOUDY    27  21  80 NE17      29.89R WCI  14
DETROIT LAKES  CLOUDY    28  23  80 NE10      29.94R WCI  19
MOORHEAD       CLOUDY    27  21  80 N14       30.00R WCI  15
FERGUS FALLS   CLOUDY    28  21  74 N12       29.93R WCI  18
MORRIS MN      CLOUDY    28  23  80 N15       29.88R WCI  17
STAPLES        CLOUDY    27  21  80 N9G17     29.88R WCI  17
$$
  *****  WEATHER ELSEWHERE ACROSS MINNESOTA  *****

CITY           SKY/WX    TMP DP  RH WIND       PRES   REMARKS
DULUTH         CLOUDY    25  22  88 NE9       29.83R WCI  15
INTRNTL FALLS  CLOUDY    21  16  81 NE8       30.00S WCI  11
ELY            CLOUDY    18  16  93 NE8       29.92S WCI   7
CLOQUET        CLOUDY    27  19  74 NE13G23   29.84R WCI  16
WHEATON        CLOUDY    28  23  80 N17       29.94R WCI  16
BRAINERD       CLOUDY    30  22  72 N10       29.85R WCI  21
HIBBING        CLOUDY    21  17  84 N15       29.89S WCI   8
ALEXANDRIA     CLOUDY    29  23  78 NE18G24   29.85R WCI  16
SAINT CLOUD    CLOUDY    28  23  81 N13G25    29.79R WCI  17
MINNEAPOLIS    HVY SNOW  28  27  96 N20G29    29.69R VSB 1/4 WCI  15
$$

  *****  WEATHER ACROSS SOUTH DAKOTA  *****

CITY           SKY/WX    TMP DP  RH WIND       PRES   REMARKS
SIOUX FALLS    FLURRIES  28  25  88 N30G39    29.77R WCI  12
BROOKINGS      CLOUDY    26  23  88 N26G32    29.81R WCI  10
WATERTOWN      CLOUDY    24  24 100 N22G29    29.85R WCI   9
HURON          CLOUDY    25  22  88 N23G33    29.92R WCI  10
SISSETON         N/A     27  24  89 N24       29.93R WCI  12
ABERDEEN       CLOUDY    24  22  91 N22G28    29.98R WCI   9
MITCHELL       CLOUDY    25  23  92 N23       29.90R WCI  10
PIERRE         CLOUDY    24  23  96 N13       29.97R WCI  12
MOBRIDGE       CLOUDY    24  22  91 N7        29.98R FOG     WCI  16
RAPID CITY     FAIR      40  17  39 N24       29.95R
$$

  *****  SOME WEATHER IN NEARBY STATES *****

CITY           SKY/WX    TMP DP  RH WIND       PRES   REMARKS
GLASGOW MT     FAIR      20  15  81 CALM      29.97S
GREAT FALLS MT FAIR      40  17  39 SW20      30.00S
CHEYENNE WY    FAIR      29  11  47 MISG      29.99R
SCOTTSBLUFF NE FAIR      32  19  58 NW18      30.00R WCI  20
OMAHA NE       LGT SNOW  31  29  92 N35G46    29.58R VSB 1   WCI  15
DES MOINES IA  CLOUDY    38  36  92 S7        29.42R
DAVENPORT IA   MOCLDY    46  34  62 W17       29.46R
CHICAGO IL     MOCLDY    53  47  79 S13       29.43F
EAU CLAIRE WI  HVY SNOW  31  30  96 NE13G23   29.61F VSB 1/4 WCI  21
LA CROSSE WI   CLOUDY    34  33  96 N8        29.53R
$$

  *****  SOME NATIONAL WEATHER *****

CITY           SKY/WX    TMP DP  RH WIND       PRES   REMARKS
LA GUARDIA NY  CLOUDY    40  36  86 NE13      30.15R
RALEIGH NC     MOCLDY    59  42  53 S8        30.08S
ATLANTA GA     CLOUDY    61  59  93 S9        29.95F
NEW ORLEANS LA PTSUNNY   72  57  59 N3        29.91S
OKLAHOMA CITY  CLOUDY    47  24  40 NW24G32   29.96R
ALBUQUERQUE NM FAIR      42  10  27 N8        30.18F
SALT LAKE CITY CLOUDY    34  20  56 S8        30.29S
LOS ANGELES CA FAIR      65  36  34 W12       30.18F
BOISE ID       FAIR      45  32  60 NW10      30.23S
SEATTLE WA     PTSUNNY   45  38  76 SW13      30.28R
$$

*** WEATHER ACROSS MANITOBA...SASKATCHEWAN AND ONTARIO ***
                ***ONTARIO***

CITY           SKY/WX    TMP DP  RH WIND       PRES   REMARKS
GERALDTON      FLURRIES   1  -8  66 NE12G20   30.12S WCI -15
THUNDER BAY    MOCLDY    16   7  67 N6        30.01R WCI   7
SIOUX LOOKOUT  FLURRIES  10   5  79 NE6       30.08R WCI   1
TORONTO        FOG       34  32  93 E7        29.84S VSB 1/2
BIG TROUT LK   CLEAR     -2  -8  78 E6        30.33R WCI -14
PICKLE LAKE    CLOUDY     3  -6  66 E7        30.17S WCI  -9
DRYDEN         FLURRIES  12   7  79 NE12      30.06R WCI  -2
KENORA         CLOUDY    18  12  79 N8        30.06  WCI   7
$$
                *** MANITOBA***

CITY           SKY/WX    TMP DP  RH WIND       PRES   REMARKS
BRANDON        CLOUDY    25  19  80 S7        30.03R WCI  17
DAUPHIN        CLOUDY    23  19  86 E3        30.04R
ISLAND LAKE    CLEAR      3  -4  72 E6        30.24R WCI  -8
PILOT MOUND      N/A     21  19  93 E5          N/A  WCI  15
THE PAS        CLOUDY     1  -4  78 E8        30.08F WCI -12
THOMPSON       PTCLDY    -4 -11  71 E8        30.27F WCI -19
WINNIPEG       CLOUDY    25  18  74 NE9       30.09R WCI  15
CHURCHILL      FLURRIES  -9 -15  77 SW5       30.53R WCI -21
GILLAM         PTCLDY    -9 -13  84 E3        30.39S
$$
                ***SASKATCHEWAN***

CITY           SKY/WX    TMP DP  RH WIND       PRES   REMARKS
ESTEVAN        PTSUNNY   21  19  93 E7        29.94S WCI  13
KINDERSLEY     MOSUNNY   36  21  55 W13G20    29.82R
LLOYDMINSTER   CLOUDY    21  19  93 W9        29.82R FOG     WCI  11
PRINCE ALBERT  FLURRIES  14  10  85 E12       29.88R WCI   0
REGINA         PTSUNNY   28  21  74 SE14      29.85S WCI  17
YORKTON        CLOUDY    21  21 100 S15G21    29.90F WCI   8
N. BATTLEFORD  CLOUDY    19  18  93 E3        29.83R
LA RONGE       LGT SNOW   3  -2  78 NE12      29.97  WCI -13
SASKATOON      PTSUNNY   25  19  80 W8        29.83R WCI  16
SWIFT CURRENT  SUNNY     39  21  48 W21G29    29.83R
$$
NOTE: THESE ARE AUTOMATED STATIONS WITH LIMITED QUALITY CONTROL
      "FAIR" INDICATES FEW OR NO CLOUDS BELOW 12,000 FEET WITH NO
      SIGNIFICANT WEATHER AND/OR OBSTRUCTIONS TO VISIBILITY.
      SKY/WX - SKY CONDITION AND SIGNIFICANT WEATHER.
      TMP - AIR TEMPERATURE.    DP   - DEWPOINT TEMPERATURE.
      RH  - RELATIVE HUMIDITY.  PRES - PRESSURE.
      HX  - HEAT INDEX.         WCI  - WIND CHILL INDEX.
$




USA.gov is the U.S. government's official web portal to all federal, state and local government web resources and services.